Weather History for Comox, BC

Change the Weather History Date:

Saturday, February 23, 2013

  Actual Average Record
Temperature  
Mean Temperature 40 °F -  
Max Temperature 48 °F 48 °F 50 °F (2004)
Min Temperature 33 °F 35 °F 26 °F (2005)
Degree Days  
Heating Degree Days 24    
Moisture  
Dew Point 34 °F    
Average Humidity 75    
Maximum Humidity 100    
Minimum Humidity 50    
Precipitation  
Precipitation 0.00 in 0.15 in - ()
Sea Level Pressure  
Sea Level Pressure 30.11 in    
Wind  
Wind Speed 4 mph ()    
Max Wind Speed 14 mph    
Max Gust Speed 20 mph    
Visibility 19.9 miles    
Events Rain    
Averages and records for this station are not official NWS values.
T = Trace of Precipitation, MM = Missing Value Source: Averaged Metar Reports

Daily Weather History Graph

Daily Weather History Graph

Search for Another Location

Airport:

Trip Planner

Search our weather history database for the weather conditions in past years. The results will help you decide how hot, cold, wet, or windy it might be!

Date:

Astronomy

Feb. 23, 2013 Rise Set
Actual Time 7:13 AM PST 5:52 PM PST
Civil Twilight 6:41 AM PST 6:25 PM PST
Nautical Twilight 6:03 AM PST 7:02 PM PST
Astronomical Twilight 5:26 AM PST 7:39 PM PST
Moon 4:03 PM PST (2/23) 5:46 AM PST (2/23)
Length of Visible Light 11h 44m
Length of Day
10h 39m
Waxing Gibbous, 96% of the Moon is Illuminated
Feb 23
Waxing Gibbous
Feb 25
Full
Mar 4
Last Quarter
Mar 11
New
Mar 19
First Quarter

Hourly Weather History & Observations

Time (PST) Temp. Windchill Dew Point Humidity Pressure Visibility Wind Dir Wind Speed Gust Speed Precip Events Conditions
12:00 AM 37.4 °F - 33.8 °F 87% 29.77 in 20.0 mi Calm Calm - N/A   Mostly Cloudy
1:00 AM 37.4 °F 33.8 °F 32.0 °F 81% 29.79 in 20.0 mi WSW 4.6 mph - N/A   Mostly Cloudy
2:00 AM 37.4 °F 34.9 °F 30.2 °F 75% 29.83 in 20.0 mi WNW 3.5 mph - N/A   Scattered Clouds
3:00 AM 37.4 °F 30.8 °F 33.8 °F 87% 29.88 in 20.0 mi WNW 9.2 mph - N/A   Mostly Cloudy
4:00 AM 37 °F - 35 °F 91% 29.92 in 19 mi West 5.8 mph - -   Scattered Clouds
4:00 AM 37.4 °F 32.1 °F 35.6 °F 93% 29.92 in 20.0 mi West 6.9 mph - N/A   Scattered Clouds
5:00 AM 37.4 °F 32.8 °F 35.6 °F 93% 29.96 in 20.0 mi NW 5.8 mph - N/A   Scattered Clouds
6:00 AM 37.4 °F 34.9 °F 35.6 °F 93% 30.00 in 20.0 mi West 3.5 mph - N/A   Scattered Clouds
7:00 AM 33.8 °F - 33.8 °F 100% 30.03 in 20.0 mi Calm Calm - N/A   Partly Cloudy
8:00 AM 33.8 °F 28.6 °F 33.8 °F 100% 30.07 in 20.0 mi West 5.8 mph - N/A   Partly Cloudy
9:00 AM 39.2 °F - 33.8 °F 81% 30.11 in 20.0 mi West 2.3 mph - N/A   Partly Cloudy
10:00 AM 44 °F - 35 °F 60% 30.14 in 19 mi Calm Calm - -   Scattered Clouds
10:00 AM 42.8 °F - 35.6 °F 76% 30.14 in 20.0 mi North 2.3 mph - N/A   Scattered Clouds
11:00 AM 44.6 °F 40.2 °F 35.6 °F 71% 30.15 in 20.0 mi North 8.1 mph - N/A   Mostly Cloudy
12:00 PM 46.4 °F 44.3 °F 35.6 °F 66% 30.17 in 20.0 mi NE 4.6 mph - N/A   Overcast
1:00 PM 48.2 °F - 32.0 °F 54% 30.19 in 20.0 mi NNW 13.8 mph 19.6 mph N/A   Overcast
2:00 PM 46.4 °F 41.9 °F 32.0 °F 57% 30.20 in 20.0 mi North 9.2 mph - N/A   Mostly Cloudy
3:00 PM 46.4 °F 41.9 °F 33.8 °F 62% 30.22 in 20.0 mi North 9.2 mph - N/A   Overcast
4:00 PM 46 °F - 33 °F 50% 30.22 in 19 mi NNE 8.1 mph - -   Scattered Clouds
4:00 PM 46.4 °F 42.4 °F 33.8 °F 62% 30.22 in 20.0 mi NNE 8.1 mph - N/A   Mostly Cloudy
5:00 PM 44.6 °F 40.7 °F 32.0 °F 61% 30.24 in 20.0 mi North 6.9 mph - N/A   Overcast
6:00 PM 44.6 °F 42.2 °F 33.8 °F 66% 30.25 in 20.0 mi SSW 4.6 mph - N/A   Overcast
7:00 PM 42.8 °F - 33.8 °F 70% 30.27 in 20.0 mi Calm Calm - N/A   Overcast
8:00 PM 42.8 °F 40.1 °F 33.8 °F 70% 30.29 in 20.0 mi NNW 4.6 mph - N/A Rain Light Rain
8:20 PM - - - N/A% - 20.0 mi NE 3.5 mph - N/A   Overcast
9:00 PM 41.0 °F - 32.0 °F 70% 30.29 in 20.0 mi Calm Calm - N/A   Overcast
10:00 PM 41 °F - 33 °F 65% 30.29 in 19 mi SSW 2.3 mph - -   Partly Cloudy
10:00 PM 41.0 °F - 33.8 °F 76% 30.29 in 20.0 mi Calm Calm - N/A   Overcast
10:26 PM - - - N/A% - 20.0 mi SW 2.3 mph - N/A Rain Light Rain Showers
11:00 PM 41.0 °F 39.0 °F 33.8 °F 76% 30.29 in 20.0 mi SSW 3.5 mph - N/A Rain Light Rain Showers